Вернуться в каталог

DMSP 5D-2 F12 DEB

АктивенPO
NORAD 43344·DEBRIS·🇺🇸 United States

Запущен Aug 29, 1994 с Vandenberg Space Force Base

Loading…

Ближайшие Пролёты (ближайшие 24 часа)

TLE

СвежийSource: Space-Track

Эпоха: Sep 13, 2026, 03:39 UTC

1 43344U 94057G   26256.15236290  .00005209  00000-0  15283-2 0  9999
2 43344  98.9577  28.1323 0011050 192.7821 167.3089 14.44251625513604

Отслеживайте DMSP 5D-2 F12 DEB в реальном времени с AllMySat

Download on the App Store